RYR1HV LGKR-EPMO

Flight info

Callsign RYR1HV
Flight time N/A
Altitude 38000
Route NIKRO DCT OVVER DCT UNDER DCT ALELU DCT RISTU DCT PARAK DCT KEKED DCT PODAN DCT MONOV L621 LIMVI
Aircraft B738/M-SDE3FGILRWY/SB1

Departure

Time N/A
Airport Corfu Ioannis Kapodistrias International Airport (LGKR)

Arrival

Time 2026-05-03 21:33
Airport Warsaw Modlin Airport (EPMO)
Time Latitude Longitude Altitude Speed Heading
2026-05-03 20:15 44.62809 20.01783 38166 ft 402 kts
2026-05-03 20:15 44.68391 20.02232 38167 ft 402 kts
2026-05-03 20:16 44.73967 20.02680 38172 ft 401 kts
2026-05-03 20:16 44.79538 20.03052 38192 ft 400 kts
2026-05-03 20:17 44.85103 20.03294 38175 ft 399 kts
2026-05-03 20:17 44.90610 20.03525 38173 ft 398 kts
2026-05-03 20:18 44.96132 20.03770 38178 ft 396 kts
2026-05-03 20:18 45.01634 20.04021 38156 ft 395 kts
2026-05-03 20:19 45.07124 20.04275 38162 ft 394 kts
2026-05-03 20:19 45.12602 20.04529 38164 ft 394 kts
2026-05-03 20:20 45.18079 20.04783 38168 ft 394 kts
2026-05-03 20:20 45.23560 20.05038 38166 ft 394 kts
2026-05-03 20:21 45.29040 20.05294 38157 ft 394 kts
2026-05-03 20:21 45.34518 20.05550 38161 ft 394 kts
2026-05-03 20:22 45.40006 20.05806 38155 ft 395 kts
2026-05-03 20:22 45.45500 20.06064 38162 ft 395 kts
2026-05-03 20:23 45.50989 20.06322 38162 ft 396 kts
2026-05-03 20:23 45.56462 20.06579 38167 ft 396 kts
2026-05-03 20:24 45.61977 20.06839 38154 ft 397 kts
2026-05-03 20:24 45.67503 20.07100 38161 ft 397 kts
2026-05-03 20:25 45.73035 20.07361 38164 ft 398 kts
2026-05-03 20:25 45.78576 20.07624 38160 ft 398 kts
2026-05-03 20:26 45.83948 20.07878 38162 ft 399 kts
2026-05-03 20:26 45.89492 20.08142 38150 ft 399 kts
2026-05-03 20:27 45.95043 20.08405 38161 ft 399 kts
2026-05-03 20:27 46.00591 20.08669 38160 ft 399 kts
2026-05-03 20:28 46.06148 20.08933 38163 ft 399 kts
2026-05-03 20:28 46.10768 20.09152 38163 ft 400 kts
2026-05-03 20:29 46.16324 20.09442 38164 ft 400 kts
2026-05-03 20:29 46.21812 20.10638 38162 ft 399 kts 11°
2026-05-03 20:30 46.27279 20.12122 38159 ft 400 kts 11°
2026-05-03 20:30 46.32747 20.13586 38161 ft 400 kts 11°
2026-05-03 20:31 46.38225 20.15017 38159 ft 400 kts 11°
2026-05-03 20:31 46.43713 20.16434 38153 ft 401 kts 11°
2026-05-03 20:32 46.49204 20.17850 38157 ft 401 kts 11°
2026-05-03 20:32 46.54700 20.19268 38159 ft 401 kts 11°
2026-05-03 20:33 46.60200 20.20691 38161 ft 402 kts 11°
2026-05-03 20:33 46.65707 20.22119 38152 ft 402 kts 11°
2026-05-03 20:34 46.71220 20.23551 38152 ft 403 kts 11°
2026-05-03 20:34 46.76739 20.24988 38151 ft 403 kts 11°
2026-05-03 20:35 46.82225 20.26419 38155 ft 403 kts 11°
2026-05-03 20:35 46.87753 20.27865 38149 ft 404 kts 11°
2026-05-03 20:36 46.93286 20.29314 38146 ft 404 kts 11°
2026-05-03 20:36 46.98822 20.30768 38151 ft 404 kts 11°
2026-05-03 20:37 47.04357 20.32224 38152 ft 404 kts 11°
2026-05-03 20:37 47.09895 20.33684 38146 ft 404 kts 11°
2026-05-03 20:38 47.15430 20.35146 38159 ft 404 kts 11°
2026-05-03 20:38 47.20967 20.36612 38156 ft 404 kts 11°
2026-05-03 20:39 47.26499 20.38080 38149 ft 404 kts 11°
2026-05-03 20:39 47.32028 20.39550 38153 ft 403 kts 11°
2026-05-03 20:40 47.37547 20.41021 38150 ft 403 kts 11°
2026-05-03 20:40 47.43071 20.42496 38143 ft 403 kts 11°
2026-05-03 20:41 47.48595 20.43974 38136 ft 403 kts 11°
2026-05-03 20:41 47.54116 20.45455 38139 ft 403 kts 11°
2026-05-03 20:42 47.59634 20.46938 38137 ft 403 kts 11°
2026-05-03 20:42 47.65150 20.48423 38143 ft 403 kts 11°
2026-05-03 20:43 47.70665 20.49912 38136 ft 403 kts 11°
2026-05-03 20:43 47.76184 20.51405 38140 ft 403 kts 11°
2026-05-03 20:44 47.81705 20.52901 38139 ft 404 kts 11°
2026-05-03 20:44 47.87212 20.54397 38140 ft 404 kts 11°
2026-05-03 20:45 47.92740 20.55902 38156 ft 409 kts 11°
2026-05-03 20:45 47.98410 20.57451 38153 ft 420 kts 11°
2026-05-03 20:46 48.04178 20.59029 38151 ft 429 kts 11°
2026-05-03 20:46 48.10090 20.60650 38134 ft 432 kts 11°
2026-05-03 20:47 48.16019 20.62279 38143 ft 434 kts 11°
2026-05-03 20:47 48.21954 20.63913 38133 ft 434 kts 11°
2026-05-03 20:48 48.27885 20.65550 38127 ft 433 kts 11°
2026-05-03 20:48 48.33812 20.67189 38133 ft 433 kts 11°
2026-05-03 20:49 48.39734 20.68832 38135 ft 433 kts 11°
2026-05-03 20:49 48.45650 20.70480 38116 ft 432 kts 11°
2026-05-03 20:50 48.51555 20.72126 38129 ft 431 kts 11°
2026-05-03 20:50 48.57457 20.73772 38130 ft 431 kts 11°
2026-05-03 20:51 48.63345 20.75424 38134 ft 430 kts 11°
2026-05-03 20:51 48.69232 20.77081 38134 ft 430 kts 11°
2026-05-03 20:52 48.75118 20.78734 38147 ft 430 kts 11°
2026-05-03 20:52 48.81009 20.80391 38141 ft 431 kts 11°
2026-05-03 20:53 48.86902 20.82053 38143 ft 431 kts 11°
2026-05-03 20:53 48.92794 20.83722 38142 ft 431 kts 11°
2026-05-03 20:54 48.98651 20.85386 38129 ft 431 kts 11°
2026-05-03 20:54 49.07499 20.87907 38135 ft 431 kts 11°
2026-05-03 20:55 49.13403 20.89596 38136 ft 431 kts 11°
2026-05-03 20:55 49.19305 20.91293 38121 ft 432 kts 11°
2026-05-03 20:56 49.25206 20.92982 38124 ft 431 kts 11°
2026-05-03 20:56 49.31104 20.94676 38121 ft 431 kts 11°
2026-05-03 20:57 49.36966 20.96366 38128 ft 431 kts 11°
2026-05-03 20:57 49.42868 20.98074 38099 ft 432 kts 11°
2026-05-03 20:58 49.48776 20.99792 38117 ft 432 kts 11°
2026-05-03 20:58 49.54688 21.01515 38105 ft 433 kts 11°
2026-05-03 20:59 49.60610 21.03241 38098 ft 433 kts 11°
2026-05-03 20:59 49.66537 21.04973 38098 ft 434 kts 11°
2026-05-03 21:00 49.70501 21.06133 38089 ft 434 kts 11°
2026-05-03 21:00 49.78407 21.08454 38082 ft 434 kts 11°
2026-05-03 21:01 49.84350 21.10202 38075 ft 435 kts 11°
2026-05-03 21:01 49.90294 21.11953 38066 ft 435 kts 11°
2026-05-03 21:02 49.96245 21.13713 38068 ft 435 kts 11°
2026-05-03 21:02 50.02200 21.15473 38064 ft 436 kts 11°
2026-05-03 21:03 50.08159 21.17241 38062 ft 436 kts 11°
2026-05-03 21:03 50.14115 21.19016 38060 ft 436 kts 11°
2026-05-03 21:04 50.20061 21.20798 38061 ft 436 kts 11°
2026-05-03 21:04 50.26027 21.22590 38060 ft 436 kts 11°
2026-05-03 21:05 50.31993 21.24383 38056 ft 437 kts 11°
2026-05-03 21:05 50.37962 21.26178 38055 ft 437 kts 11°
2026-05-03 21:06 50.43935 21.27981 38053 ft 437 kts 11°
2026-05-03 21:06 50.49915 21.29791 38057 ft 438 kts 11°
2026-05-03 21:07 50.55883 21.31601 38064 ft 438 kts 11°
2026-05-03 21:07 50.61872 21.33423 38059 ft 439 kts 11°
2026-05-03 21:08 50.67870 21.35252 38061 ft 439 kts 11°
2026-05-03 21:08 50.73867 21.37085 38059 ft 439 kts 11°
2026-05-03 21:09 50.79830 21.38913 38061 ft 439 kts 11°
2026-05-03 21:09 50.85842 21.40761 37798 ft 444 kts 11°
2026-05-03 21:10 50.88877 21.41696 37236 ft 442 kts 11°
2026-05-03 21:10 50.91887 21.42624 36629 ft 439 kts 11°
2026-05-03 21:10 50.94878 21.43548 36003 ft 438 kts 11°
2026-05-03 21:10 50.97871 21.44474 35301 ft 439 kts 11°
2026-05-03 21:11 51.00871 21.45403 34599 ft 440 kts 11°
2026-05-03 21:11 51.03876 21.46335 33857 ft 441 kts 11°
2026-05-03 21:11 51.06893 21.47272 33016 ft 442 kts 11°
2026-05-03 21:11 51.09916 21.48212 32211 ft 443 kts 11°
2026-05-03 21:12 51.12946 21.49155 31393 ft 444 kts 11°
2026-05-03 21:12 51.15979 21.50101 30556 ft 445 kts 11°
2026-05-03 21:12 51.19027 21.51053 29611 ft 447 kts 11°
2026-05-03 21:12 51.22086 21.52009 28596 ft 448 kts 11°
2026-05-03 21:13 51.25143 21.52966 27612 ft 448 kts 10°
2026-05-03 21:13 51.28212 21.53928 26570 ft 450 kts 10°
2026-05-03 21:13 51.31287 21.54893 25630 ft 450 kts 10°
2026-05-03 21:13 51.34338 21.55852 24906 ft 444 kts 10°
2026-05-03 21:14 51.37342 21.56797 24169 ft 440 kts 10°
2026-05-03 21:14 51.40336 21.57740 23393 ft 436 kts
2026-05-03 21:14 51.43303 21.58675 22549 ft 433 kts
2026-05-03 21:14 51.46239 21.59602 21807 ft 427 kts
2026-05-03 21:15 51.48163 21.60209 21310 ft 425 kts
2026-05-03 21:15 51.51046 21.61121 20587 ft 420 kts
2026-05-03 21:15 51.53905 21.62025 19870 ft 417 kts
2026-05-03 21:15 51.56737 21.62922 19166 ft 413 kts
2026-05-03 21:16 51.59550 21.63812 18470 ft 411 kts
2026-05-03 21:16 51.62347 21.64698 17670 ft 409 kts
2026-05-03 21:16 51.65971 21.65848 17317 ft 390 kts
2026-05-03 21:16 51.67750 21.66415 17193 ft 382 kts
2026-05-03 21:17 51.70318 21.67237 17033 ft 370 kts
2026-05-03 21:17 51.72821 21.67953 16871 ft 361 kts
2026-05-03 21:17 51.75266 21.67533 16587 ft 351 kts 341°
2026-05-03 21:17 51.77462 21.65910 16154 ft 344 kts 329°
2026-05-03 21:18 51.79526 21.63971 15700 ft 342 kts 327°
2026-05-03 21:18 51.81553 21.61993 15260 ft 340 kts 327°
2026-05-03 21:18 51.83565 21.60016 14822 ft 338 kts 327°
2026-05-03 21:18 51.85569 21.58049 14390 ft 336 kts 327°
2026-05-03 21:19 51.87539 21.56126 13964 ft 335 kts 327°
2026-05-03 21:19 51.89531 21.54187 13493 ft 334 kts 327°
2026-05-03 21:19 51.91517 21.52260 13027 ft 332 kts 327°
2026-05-03 21:19 51.93496 21.50341 12578 ft 330 kts 327°
2026-05-03 21:20 51.95460 21.48432 12150 ft 328 kts 326°
2026-05-03 21:20 51.97409 21.46532 11716 ft 327 kts 326°
2026-05-03 21:20 51.99357 21.44636 11290 ft 325 kts 326°
2026-05-03 21:20 52.01294 21.42751 10865 ft 324 kts 326°
2026-05-03 21:21 52.03224 21.40874 10492 ft 322 kts 326°
2026-05-03 21:21 52.05114 21.39039 10341 ft 312 kts 326°
2026-05-03 21:21 52.06950 21.37254 10194 ft 303 kts 326°
2026-05-03 21:21 52.08729 21.35523 10064 ft 294 kts 326°
2026-05-03 21:22 52.10471 21.33825 9768 ft 291 kts 326°
2026-05-03 21:22 52.12204 21.32132 9445 ft 290 kts 326°
2026-05-03 21:22 52.13925 21.30449 9122 ft 288 kts 326°
2026-05-03 21:22 52.15636 21.28773 8806 ft 286 kts 326°
2026-05-03 21:23 52.17336 21.27109 8486 ft 285 kts 326°
2026-05-03 21:23 52.19029 21.25449 8180 ft 283 kts 326°
2026-05-03 21:23 52.20712 21.23799 7870 ft 282 kts 326°
2026-05-03 21:23 52.22386 21.22155 7564 ft 280 kts 326°
2026-05-03 21:24 52.24050 21.20520 7255 ft 279 kts 326°
2026-05-03 21:24 52.25709 21.18889 6947 ft 278 kts 326°
2026-05-03 21:24 52.27364 21.17259 6633 ft 278 kts 326°
2026-05-03 21:24 52.29019 21.15628 6312 ft 277 kts 326°
2026-05-03 21:25 52.30646 21.14025 5983 ft 277 kts 326°
2026-05-03 21:25 52.32289 21.12404 5687 ft 275 kts 325°
2026-05-03 21:25 52.33901 21.10813 5546 ft 267 kts 325°
2026-05-03 21:25 52.35461 21.09273 5424 ft 259 kts 325°
2026-05-03 21:26 52.36984 21.07767 5306 ft 251 kts 325°
2026-05-03 21:26 52.38434 21.06333 5184 ft 236 kts 324°
2026-05-03 21:26 52.39800 21.04981 5104 ft 223 kts 324°
2026-05-03 21:26 52.41086 21.03705 5005 ft 215 kts 324°
2026-05-03 21:27 52.42344 21.02457 4930 ft 209 kts 324°
2026-05-03 21:27 52.43594 21.01213 4797 ft 212 kts 324°
2026-05-03 21:27 52.44858 20.99954 4587 ft 212 kts 324°
2026-05-03 21:27 52.46119 20.98702 4373 ft 211 kts 323°
2026-05-03 21:28 52.47298 20.97319 4131 ft 205 kts 304°
2026-05-03 21:28 52.47813 20.95267 3932 ft 192 kts 273°
2026-05-03 21:28 52.47761 20.93143 3752 ft 183 kts 259°
2026-05-03 21:28 52.47569 20.91124 3518 ft 175 kts 259°
2026-05-03 21:29 52.47382 20.89195 3333 ft 169 kts 259°
2026-05-03 21:29 52.47201 20.87297 3136 ft 168 kts 259°
2026-05-03 21:29 52.47024 20.85406 2900 ft 168 kts 259°
2026-05-03 21:29 52.46851 20.83548 2669 ft 161 kts 259°
2026-05-03 21:30 52.46686 20.81770 2415 ft 154 kts 258°
2026-05-03 21:30 52.46525 20.80078 2199 ft 146 kts 257°
2026-05-03 21:30 52.46375 20.78475 1968 ft 139 kts 257°
2026-05-03 21:30 52.46231 20.76931 1767 ft 133 kts 257°
2026-05-03 21:31 52.46094 20.75461 1544 ft 130 kts 257°
2026-05-03 21:31 52.45954 20.73970 1354 ft 135 kts 258°
2026-05-03 21:31 52.45808 20.72441 1204 ft 135 kts 259°
2026-05-03 21:31 52.45647 20.70907 955 ft 137 kts 259°
2026-05-03 21:32 52.45504 20.69335 710 ft 141 kts 258°
2026-05-03 21:32 52.45361 20.67740 459 ft 141 kts 258°
2026-05-03 21:32 52.45215 20.66192 338 ft 128 kts 261°
2026-05-03 21:32 52.45113 20.65097 337 ft 66 kts 261°
2026-05-03 21:33 52.45071 20.64655 337 ft 27 kts 261°
2026-05-03 21:33 52.45038 20.64418 334 ft 11 kts 227°
2026-05-03 21:33 52.44965 20.64387 335 ft 11 kts 182°
2026-05-03 21:33 52.44890 20.64382 337 ft 11 kts 182°
2026-05-03 21:34 52.44817 20.64377 336 ft 10 kts 182°
2026-05-03 21:34 52.44747 20.64372 334 ft 10 kts 182°
2026-05-03 21:34 52.44715 20.64449 337 ft 10 kts 81°
2026-05-03 21:34 52.44725 20.64565 336 ft 12 kts 81°
2026-05-03 21:35 52.44743 20.64750 335 ft 20 kts 81°
2026-05-03 21:35 52.44765 20.64981 335 ft 20 kts 81°
2026-05-03 21:35 52.44786 20.65207 337 ft 20 kts 81°
2026-05-03 21:35 52.44802 20.65383 335 ft 11 kts 81°
2026-05-03 21:36 52.44772 20.65427 334 ft 6 kts 194°
2026-05-03 21:36 52.44759 20.65417 334 ft 1 kts 206°
2026-05-03 21:36 52.44758 20.65417 334 ft 0 kts 206°